Regional Weather Roundup
Issued by NWS

Home | Current Version | Previous Version | Graphics & Text | Print | Product List | Glossary On
Versions: 1 2 3 4 5 6 7 8 9 10 11 12 13 14 15 16 17 18 19 20 21 22 23 24 25 26 27 28 29 30 31 32 33 34 35 36 37 38 39 40 41 42 43 44 45 46 47 48 49 50
000
ASUS43 KFSD 260102
RWRSD

WEATHER ROUNDUP FOR SOUTH DAKOTA
NATIONAL WEATHER SERVICE SIOUX FALLS SD
800 PM CDT SAT OCT 25 2014

NOTE: "FAIR" INDICATES FEW OR NO CLOUDS BELOW 12,000 FEET WITH NO
SIGNIFICANT WEATHER AND/OR OBSTRUCTIONS TO VISIBILITY.


SDZ001>005-009-010-012>017-260200-
NORTHWEST AND NORTH CENTRAL SOUTH DAKOTA

CITY           SKY/WX    TMP DP  RH WIND       PRES   REMARKS
BUFFALO          N/A     53  31  42 SE15      29.85F
FAITH            N/A     53  29  39 SE13      29.97S
MOBRIDGE       CLEAR     55  32  41 SE14      29.98F
$$

SDZ012>016-024>037-041>051-057-063-072>074-260200-
SOUTHWEST AND SOUTH CENTRAL SOUTH DAKOTA

CITY           SKY/WX    TMP DP  RH WIND       PRES   REMARKS
RAPID CTY ARPT CLEAR     50  37  61 SE5       29.95F
PIERRE         CLEAR     52  30  43 SE9       29.99F
CUSTER         CLEAR     50  35  56 CALM      30.03F
ELLSWORTH AFB  CLEAR     56  39  53 S8        29.94F
PHILIP         CLEAR     49  32  52 E9        29.97F
PINE RIDGE     CLEAR     57  38  48 NE13      29.95F
SPEARFISH      FAIR      52  37  58 SW5       29.91F
WINNER         FAIR      52  32  46 SE9       30.02F
$$

SDZ004>011-016>023-039-040-260200-
NORTHEAST SOUTH DAKOTA

CITY           SKY/WX    TMP DP  RH WIND       PRES   REMARKS
ABERDEEN       CLEAR     48  31  51 E3        30.05F
WATERTOWN      CLEAR     51  28  41 CALM      30.06F
SISSETON         N/A     44  29  55 SW6       30.05F
$$

SDZ017-020-022-023-036>040-048>070-260200-
SOUTHEAST SOUTH DAKOTA

CITY           SKY/WX    TMP DP  RH WIND       PRES   REMARKS
SIOUX FALLS    CLEAR     51  36  56 CALM      30.07R
HURON          CLEAR     49  31  49 E3        30.05S
CHAMBERLAIN    CLEAR     53  32  45 E6        30.04S
MITCHELL       CLEAR     56  34  43 CALM      30.05S
YANKTON        CLEAR     57  34  41 NE6       30.06R
$$

ABBREVIATIONS USED IN REMARKS
   TC - TEMPERATURE IN CELSIUS
  WCI - WIND CHILL INDEX
   HX - HEAT INDEX
  VSB - VISIBILITY




USA.gov is the U.S. government's official web portal to all federal, state and local government web resources and services.